Wind_Speed
20 20 21 22 22 23 23 22 23 23 22 21 20 21 21 21 21 20 20 20 19 19 19 19 19 18 18 18 18 17 16 15 14 12 11 10 9 9 9 9 9 10 11 12
20 20 22 23 23 23 23 22 22 22 21 21 20 20 21 21 21 20 20 20 19 19 19 19 18 18 18 17 17 16 16 15 14 13 13 12 12 11 11 12 12 12 13 13
19 20 21 23 23 23 22 22 21 21 20 20 20 20 19 19 19 19 19 18 18 18 18 19 19 19 19 19 19 18 17 17 16 16 15 15 14 14 14 14 14 14 15 15
21 21 22 22 22 22 22 21 20 19 19 19 20 19 19 20 20 19 19 18 18 18 18 19 19 19 19 19 19 19 19 18 18 18 17 17 17 17 16 16 17 17 18 18
22 22 22 22 21 21 20 19 19 18 18 18 19 19 20 20 21 20 20 19 19 19 19 20 19 19 19 19 19 19 19 19 19 19 19 18 18 18 18 18 18 18 19 19
23 22 22 21 21 21 20 19 19 19 19 18 18 19 20 20 20 20 20 20 19 19 19 19 18 17 18 18 18 19 19 20 21 21 21 21 20 20 18 18 18 18 17 16
20 21 22 22 21 21 20 20 19 19 19 19 19 20 20 20 20 20 19 19 19 19 18 18 17 17 17 17 18 18 20 21 22 23 23 23 22 21 20 19 19 18 16 15
16 18 19 20 20 20 20 21 20 20 20 20 20 20 20 19 19 18 18 17 17 17 17 17 17 17 18 18 18 18 20 21 22 23 24 25 25 24 22 22 21 20 18 16
12 14 15 17 18 19 20 20 21 21 21 21 21 20 19 18 17 16 16 16 16 16 16 17 17 18 18 18 17 18 19 20 22 23 24 25 25 25 25 24 24 23 21 19
8 9 11 13 15 17 18 19 20 21 22 22 22 21 19 18 16 15 14 14 14 15 15 16 17 17 18 18 17 18 18 19 21 22 24 25 25 25 25 26 26 25 24 23
6 7 8 9 11 13 15 17 18 19 20 21 22 22 20 19 17 14 13 12 12 13 13 14 15 16 17 18 18 17 18 18 20 21 22 23 24 25 25 26 26 26 27 27
8 8 8 8 8 9 11 13 15 17 18 20 21 22 22 20 17 15 13 11 10 10 11 12 13 15 16 17 17 17 17 18 18 19 20 22 23 24 25 25 26 26 27 28
9 9 9 9 9 9 10 11 12 14 15 17 19 21 22 21 19 16 13 10 9 8 9 10 11 13 14 16 17 17 17 18 18 18 19 20 21 22 23 24 24 25 26 27
10 10 10 10 10 10 11 11 11 12 13 15 17 19 21 22 21 18 14 10 7 6 7 8 9 10 12 13 15 16 17 17 17 17 18 18 19 20 21 22 22 23 24 25
10 10 10 10 10 10 11 11 11 12 12 13 15 17 19 21 21 19 16 10 7 5 5 6 7 8 9 10 12 14 16 17 17 17 17 17 18 19 20 21 21 22 23 23
10 10 9 9 9 10 11 11 11 12 12 13 13 14 16 19 20 20 17 12 8 5 4 5 5 5 6 7 9 12 14 16 17 17 17 17 17 17 18 19 20 21 21 22
12 11 11 10 10 10 11 11 12 12 12 12 13 13 14 16 18 19 17 13 8 6 4 4 4 4 5 6 7 9 12 14 16 16 16 16 16 16 17 17 18 19 20 20
16 14 13 12 12 11 11 12 12 13 13 12 13 13 13 14 15 16 16 14 10 7 5 5 4 3 4 5 6 7 9 11 13 14 15 15 15 15 16 16 17 17 18 18
20 19 17 16 14 14 13 13 13 13 13 13 13 13 13 13 13 14 14 13 11 8 7 6 6 5 4 5 6 7 7 9 10 12 13 14 14 15 15 15 16 16 16 16
25 24 22 20 18 17 16 15 15 14 14 14 14 14 14 13 13 13 13 12 11 9 8 7 7 6 6 6 6 6 7 8 9 10 10 11 12 13 14 14 14 14 14 14
30 28 26 25 23 21 20 19 18 17 17 16 16 16 15 15 14 14 13 13 12 11 9 9 8 8 8 8 8 8 8 8 8 9 9 10 10 11 12 12 12 13 12 12
35 33 31 30 28 27 25 23 22 21 20 19 19 18 18 17 17 16 15 14 14 13 12 11 10 10 10 10 10 10 9 9 9 9 9 9 9 9 10 10 10 11 10 10
40 39 37 36 35 33 31 29 27 25 24 23 22 21 21 21 20 20 19 17 16 16 15 14 13 12 12 12 12 12 11 11 10 10 9 9 9 9 9 9 9 9 9 8
44 44 44 43 42 40 37 35 34 31 29 28 26 25 24 24 24 24 23 22 20 19 18 17 16 16 15 14 14 14 14 13 12 11 11 11 11 10 10 10 10 9 9 8
49 49 49 49 47 46 44 42 39 37 35 34 33 31 29 28 28 27 27 26 25 23 22 21 20 19 19 18 17 17 17 16 16 15 14 13 13 13 13 13 12 11 10 9
54 54 54 54 52 50 48 47 44 42 40 38 37 36 35 33 32 31 31 31 30 29 27 25 24 23 22 22 21 20 20 19 20 20 19 19 18 17 17 16 16 15 14 13
59 58 57 57 56 55 53 50 48 46 44 42 40 40 39 38 36 35 35 34 34 34 33 31 29 27 26 25 25 25 24 23 22 22 22 22 22 21 21 20 19 18 18 17
Wind_Direction
52 52 51 50 52 55 56 55 56 55 54 53 52 52 51 50 48 47 46 46 46 46 47 48 51 53 54 55 55 54 53 52 48 43 38 28 17 5 354 342 329 322 314 303
53 53 53 53 53 55 56 56 56 55 53 51 49 48 48 48 47 46 46 46 45 44 45 47 48 50 52 53 53 53 52 50 46 39 32 24 15 5 355 345 336 326 318 309
54 53 54 53 52 53 55 54 52 52 50 47 44 44 44 44 43 42 42 44 45 44 45 47 49 52 54 55 54 51 48 44 39 33 27 20 13 4 355 345 337 328 319 310
53 53 55 54 52 52 53 53 50 49 47 45 43 42 43 42 41 41 42 46 49 52 53 53 53 54 54 52 50 48 45 41 35 28 21 13 5 357 349 341 333 325 317 309
51 52 54 54 53 52 52 53 48 45 45 44 43 42 43 43 44 45 47 50 53 56 57 57 56 55 55 53 49 45 40 35 30 24 17 11 4 357 351 344 337 329 320 311
47 48 50 50 50 50 50 52 47 44 43 43 42 43 44 44 45 46 48 50 52 54 54 54 54 53 51 48 44 40 36 32 27 22 19 15 10 6 3 358 352 345 338 328
43 44 45 45 46 46 46 45 44 41 40 39 39 40 41 42 43 45 46 49 51 51 52 51 48 44 41 39 37 35 33 30 25 22 20 17 15 12 10 9 6 3 359 354
40 41 40 38 40 40 40 39 37 35 34 34 34 35 36 38 40 42 44 46 47 48 49 47 45 40 36 34 34 34 33 30 26 24 23 22 22 21 21 20 18 16 13 10
34 37 36 35 36 36 36 35 33 31 29 28 28 29 30 32 34 36 39 41 43 44 46 45 42 39 37 35 34 34 32 29 26 25 25 25 26 27 28 28 29 28 26 23
19 25 26 27 28 29 30 29 30 29 28 27 27 27 26 26 27 29 31 35 38 40 42 42 41 40 39 38 36 34 32 30 27 27 27 27 28 29 31 33 34 35 35 33
342 357 4 8 14 19 21 22 24 24 25 25 24 24 23 22 23 23 24 27 32 36 39 40 40 40 40 40 37 35 33 31 29 27 27 27 29 31 32 34 36 37 37 37
307 320 328 337 347 357 4 10 14 16 18 19 20 20 20 20 19 19 20 22 28 32 35 37 37 38 39 39 39 38 36 32 29 28 27 27 29 31 33 34 36 36 38 38
293 299 305 312 319 331 341 350 357 3 7 11 14 16 17 17 16 16 16 19 24 28 31 32 33 34 36 38 39 39 37 33 29 26 26 27 29 31 33 34 35 37 38 38
286 291 297 305 311 316 323 332 338 345 353 359 5 9 12 14 14 14 14 16 20 24 25 25 28 31 33 36 38 38 37 33 30 27 25 26 28 30 32 34 35 36 37 38
287 292 299 306 311 315 317 319 324 331 337 344 352 360 6 9 11 12 13 14 15 14 14 15 22 27 30 34 36 37 35 33 30 28 27 26 27 29 31 33 35 37 38 38
287 293 298 304 309 315 318 319 318 321 326 332 339 348 356 2 7 10 10 10 10 6 0 2 10 18 23 27 31 32 32 31 29 29 28 27 26 27 29 31 34 36 37 38
279 283 288 294 300 308 314 318 319 319 321 324 329 336 343 351 359 6 8 6 2 358 354 349 348 357 6 11 16 21 24 26 26 27 27 27 26 26 27 28 30 32 35 37
270 272 276 281 288 295 302 308 314 317 318 319 320 324 330 338 347 356 3 4 357 346 336 333 322 327 341 348 355 3 10 16 20 23 24 25 25 26 26 26 28 30 33 36
264 266 267 270 275 282 288 295 301 306 310 311 312 314 318 324 332 340 349 355 354 344 329 316 310 304 309 317 329 341 352 1 8 14 19 21 22 23 24 24 26 28 32 35
260 262 264 265 268 272 277 282 287 292 297 300 302 303 305 309 315 322 329 337 341 339 325 313 306 298 289 294 304 315 326 336 347 357 6 12 16 18 19 21 22 25 29 34
259 260 262 264 265 268 271 274 278 281 284 287 290 293 295 297 301 305 310 315 318 321 318 309 301 296 286 282 287 295 304 314 324 334 346 355 2 6 10 12 15 19 24 30
260 261 262 263 264 265 267 269 270 272 274 276 279 281 284 287 290 293 295 298 300 302 303 300 296 290 285 280 279 283 288 295 303 311 322 333 343 349 354 359 3 8 13 19
259 262 263 263 263 264 265 266 266 267 268 269 271 273 275 277 280 282 285 287 288 288 289 289 287 284 282 280 278 277 278 282 286 291 297 306 316 326 333 339 345 352 357 1
254 257 259 261 262 262 263 263 264 265 265 266 266 266 268 270 272 274 277 279 280 281 281 280 280 278 277 277 276 275 273 273 276 280 285 290 295 301 308 314 320 327 333 337
250 252 254 256 258 260 261 262 263 263 264 264 264 264 264 264 266 268 270 272 274 276 276 276 275 274 273 273 272 272 271 270 269 270 274 279 285 288 291 294 297 300 304 308
250 250 252 254 256 257 259 260 261 262 263 263 263 264 264 263 263 263 265 266 268 270 271 272 272 271 270 269 269 269 269 268 268 268 269 271 275 279 282 283 283 284 287 288
252 251 252 253 255 256 257 258 258 259 260 260 261 261 262 262 261 261 262 263 264 266 268 269 269 268 267 266 265 265 265 266 266 267 268 270 271 274 276 276 276 276 277 278
Height
5867 5863 5860 5857 5853 5849 5847 5844 5841 5838 5835 5832 5829 5826 5822 5818 5815 5811 5808 5805 5803 5800 5798 5796 5794 5793 5792 5791 5790 5789 5789 5788 5787 5786 5785 5784 5783 5781 5779 5778 5777 5775 5774 5773
5871 5867 5864 5861 5857 5854 5851 5848 5846 5843 5840 5837 5834 5830 5826 5823 5819 5816 5813 5810 5807 5805 5803 5801 5799 5797 5796 5795 5793 5792 5791 5790 5789 5788 5786 5784 5783 5781 5778 5776 5775 5773 5771 5770
5875 5871 5868 5865 5861 5858 5855 5852 5850 5847 5845 5841 5838 5835 5831 5827 5824 5820 5817 5814 5812 5810 5807 5805 5803 5801 5800 5799 5797 5796 5794 5793 5791 5789 5787 5784 5782 5779 5777 5774 5772 5770 5768 5766
5878 5875 5871 5870 5865 5862 5859 5856 5853 5851 5848 5845 5842 5839 5835 5831 5827 5824 5821 5818 5816 5814 5812 5810 5808 5806 5804 5802 5801 5799 5797 5795 5793 5791 5788 5785 5782 5778 5775 5772 5769 5766 5763 5761
5881 5878 5874 5871 5868 5865 5862 5860 5857 5855 5851 5848 5845 5842 5838 5835 5831 5828 5825 5822 5820 5818 5816 5814 5812 5810 5808 5806 5805 5803 5800 5798 5795 5792 5789 5785 5781 5777 5773 5769 5766 5762 5758 5755
5884 5881 5878 5876 5872 5868 5866 5863 5860 5858 5855 5852 5849 5846 5842 5838 5835 5832 5829 5826 5824 5822 5820 5818 5817 5815 5813 5810 5808 5806 5803 5801 5797 5794 5790 5786 5782 5777 5772 5768 5763 5759 5754 5750
5887 5884 5881 5878 5874 5871 5870 5868 5863 5860 5857 5854 5851 5849 5845 5842 5838 5835 5833 5830 5828 5826 5824 5822 5820 5818 5816 5813 5811 5808 5806 5802 5799 5795 5791 5786 5782 5777 5772 5767 5762 5757 5753 5749
5889 5887 5886 5881 5877 5875 5872 5868 5865 5862 5860 5857 5854 5850 5847 5844 5842 5839 5836 5834 5832 5830 5828 5826 5823 5821 5819 5816 5814 5811 5808 5805 5801 5797 5793 5788 5783 5778 5773 5768 5763 5758 5753 5749
5892 5891 5887 5883 5880 5877 5874 5871 5867 5864 5861 5858 5855 5852 5850 5847 5844 5841 5839 5837 5834 5832 5830 5828 5826 5824 5822 5819 5816 5813 5810 5807 5804 5799 5795 5790 5786 5781 5776 5771 5766 5761 5756 5751
5891 5889 5887 5885 5882 5879 5876 5873 5870 5867 5864 5860 5857 5854 5851 5849 5846 5843 5841 5839 5837 5835 5833 5831 5829 5827 5824 5822 5819 5816 5813 5810 5806 5802 5798 5793 5789 5784 5780 5775 5770 5765 5760 5755
5890 5889 5887 5885 5883 5880 5877 5874 5871 5869 5866 5862 5859 5856 5853 5850 5847 5845 5843 5840 5838 5836 5835 5833 5831 5829 5827 5824 5821 5818 5815 5812 5809 5805 5801 5797 5792 5788 5783 5779 5774 5769 5764 5759
5889 5888 5886 5885 5883 5880 5878 5876 5873 5870 5867 5864 5861 5858 5854 5851 5848 5846 5843 5841 5840 5838 5837 5835 5833 5831 5829 5826 5824 5821 5817 5814 5811 5808 5804 5800 5796 5792 5787 5783 5778 5774 5769 5764
5886 5885 5884 5883 5881 5879 5877 5875 5873 5871 5868 5865 5862 5859 5856 5852 5849 5846 5844 5842 5840 5839 5838 5836 5835 5833 5831 5829 5826 5823 5820 5817 5814 5810 5807 5803 5799 5795 5791 5787 5783 5779 5774 5769
5883 5882 5881 5880 5879 5877 5876 5874 5872 5870 5868 5866 5863 5860 5857 5854 5850 5847 5844 5842 5841 5839 5838 5837 5836 5834 5833 5831 5828 5825 5822 5819 5816 5813 5810 5807 5803 5799 5795 5791 5787 5783 5779 5775
5880 5879 5878 5877 5876 5875 5874 5872 5871 5869 5867 5865 5863 5860 5858 5855 5851 5848 5845 5842 5841 5840 5839 5838 5837 5836 5834 5832 5830 5828 5825 5822 5819 5816 5813 5810 5806 5803 5799 5795 5791 5788 5784 5780
5876 5875 5874 5874 5873 5872 5871 5870 5868 5867 5865 5864 5862 5860 5858 5855 5852 5849 5846 5843 5841 5840 5839 5838 5837 5836 5835 5834 5832 5830 5828 5825 5822 5819 5815 5812 5809 5806 5803 5799 5795 5792 5788 5784
5871 5871 5870 5870 5870 5869 5868 5867 5866 5864 5863 5862 5860 5859 5857 5855 5852 5849 5846 5844 5841 5840 5839 5838 5837 5836 5835 5834 5833 5832 5830 5827 5824 5821 5818 5815 5812 5809 5806 5802 5799 5796 5792 5789
5866 5866 5866 5866 5865 5865 5864 5864 5862 5861 5860 5858 5857 5856 5855 5853 5851 5849 5847 5844 5842 5840 5839 5838 5837 5836 5835 5835 5834 5832 5831 5829 5826 5823 5820 5817 5814 5812 5809 5806 5802 5799 5796 5793
5859 5860 5861 5861 5861 5860 5860 5859 5859 5857 5856 5855 5854 5853 5852 5851 5850 5848 5846 5844 5842 5840 5838 5837 5836 5835 5835 5834 5833 5832 5831 5830 5828 5825 5822 5819 5817 5814 5811 5808 5806 5803 5800 5797
5851 5852 5853 5854 5855 5855 5855 5854 5854 5853 5852 5851 5850 5849 5849 5848 5847 5846 5844 5842 5841 5839 5837 5836 5835 5834 5834 5833 5832 5832 5831 5829 5828 5826 5824 5821 5819 5816 5813 5811 5808 5806 5803 5800
5843 5844 5845 5846 5847 5848 5848 5848 5848 5848 5847 5847 5846 5845 5844 5843 5843 5842 5841 5840 5839 5837 5835 5834 5833 5832 5832 5831 5830 5830 5829 5828 5827 5826 5824 5822 5820 5818 5815 5813 5811 5808 5806 5804
5832 5834 5836 5837 5838 5839 5840 5840 5841 5841 5841 5841 5840 5840 5839 5838 5837 5837 5836 5836 5835 5834 5833 5831 5830 5830 5829 5828 5828 5827 5827 5826 5825 5824 5823 5821 5820 5818 5816 5814 5812 5810 5808 5806
5821 5822 5824 5826 5827 5829 5830 5831 5832 5832 5833 5833 5833 5833 5832 5832 5831 5831 5831 5831 5830 5829 5829 5828 5827 5826 5825 5825 5824 5824 5823 5823 5822 5821 5821 5820 5819 5818 5816 5815 5813 5811 5809 5807
5808 5809 5810 5812 5814 5816 5818 5819 5821 5822 5823 5824 5824 5825 5825 5825 5824 5824 5824 5823 5823 5823 5823 5823 5822 5821 5821 5820 5820 5820 5819 5819 5818 5818 5817 5817 5816 5815 5814 5813 5812 5810 5809 5807
5793 5794 5796 5797 5799 5802 5804 5806 5809 5811 5812 5813 5813 5814 5815 5816 5816 5816 5816 5815 5815 5815 5816 5816 5816 5815 5815 5815 5815 5814 5814 5814 5814 5814 5813 5813 5812 5811 5811 5810 5809 5808 5807 5806
5775 5778 5780 5782 5785 5787 5790 5792 5795 5797 5799 5801 5801 5802 5803 5805 5806 5806 5806 5806 5806 5806 5807 5807 5808 5808 5808 5808 5808 5808 5808 5808 5808 5808 5808 5807 5807 5807 5806 5805 5805 5804 5803 5802
5757 5760 5763 5766 5768 5771 5774 5777 5780 5782 5784 5786 5788 5789 5790 5792 5793 5794 5795 5795 5796 5796 5797 5797 5798 5799 5799 5799 5800 5800 5800 5800 5800 5800 5801 5800 5800 5800 5800 5799 5799 5798 5798 5797